User: anonymous   Login
Location: Muenchen
(48.1800°N, 11.5800°E)
Time: 23:19:43
(UTC+02:00)
Language:

Cosmos 2233 Rocket - Orbit

View from above orbital plane
View from above orbital plane
View from above satellite
View from above satellite

Ground track
Ground track

The orbit data is extracted from the following two-line orbital elements,

1 22488U 93008B   17228.62024022 -.00000060 +00000-0 -75569-4 0  9996
2 22488 082.9416 033.4578 0026522 057.5862 350.0877 13.77717392232291
Epoch (UTC): 16 August 2017 14:53:08
Eccentricity: 0.0026522
inclination: 82.9416°
perigee height: 952 km
apogee height: 991 km
right ascension of ascending node: 33.4578°
argument of perigee: 57.5862°
revolutions per day: 13.77717392
mean anomaly at epoch: 350.0877°
orbit number at epoch: 23229

The dashed part of the orbit path shows where the satellite is in the earth's shadow,  

DLR